The Dalles, WA

10:27 PM PDT on July 24, 2017 (GMT -0700)
Columbia Gorge Regional-The Dalles

Weather History for KDLS - November, 2012

Change the Weather History Date:

Thursday, November 1, 2012

  Actual Average Record
Temperature  
Mean Temperature 52 °F -  
Max Temperature 59 °F 57 °F 67 °F (1949)
Min Temperature 46 °F 38 °F 16 °F (2002)
Degree Days  
Heating Degree Days 12    
Growing Degree Days 2 (Base 50)    
Moisture  
Dew Point 48 °F    
Average Humidity 89    
Maximum Humidity 100    
Minimum Humidity 72    
Precipitation  
Precipitation 0.10 in - - ()
Sea Level Pressure  
Sea Level Pressure 29.89 in    
Wind  
Wind Speed 1 mph (NNW)    
Max Wind Speed 8 mph    
Max Gust Speed -    
Visibility 8 miles    
Events Rain    
Averages and records for this station are not official NWS values.
T = Trace of Precipitation, MM = Missing Value Source: NWS Daily Summary

Daily Weather History Graph

Daily Weather History Graph

Search for Another Location

Airport or City:

Trip Planner

Search our weather history database for the weather conditions in past years. The results will help you decide how hot, cold, wet, or windy it might be!

Date:

Astronomy

Nov. 01, 2012 Rise Set
Actual Time 7:45 AM PDT 5:50 PM PDT
Civil Twilight 7:14 AM PDT 6:21 PM PDT
Nautical Twilight 6:39 AM PDT 6:56 PM PDT
Astronomical Twilight 6:04 AM PDT 7:31 PM PDT
Moon 7:45 PM PDT (11/1) 10:28 AM PDT (11/1)
Length of Visible Light 11h 07m
Length of Day
10h 05m
Waning Gibbous, 92% of the Moon is Illuminated
Nov 1
Waning Gibbous
Nov 6
Last Quarter
Nov 13
New
Nov 20
First Quarter
Nov 28
Full

Hourly Weather History & Observations

Time (PDT) Temp. Windchill Dew Point Humidity Pressure Visibility Wind Dir Wind Speed Gust Speed Precip Events Conditions
12:17 AM 50.0 °F - 48.2 °F 94% 29.77 in 10.0 mi Calm Calm - N/A   Scattered Clouds
1:53 AM 50.0 °F - 48.0 °F 93% 29.79 in 10.0 mi Calm Calm - N/A   Overcast
4:53 AM 48.9 °F - 46.9 °F 93% 29.81 in 10.0 mi Calm Calm - N/A   Scattered Clouds
5:17 AM 46.4 °F 45.2 °F 44.6 °F 93% 29.82 in 1.8 mi WNW 3.5 mph - N/A   Mostly Cloudy
5:26 AM 46.4 °F - 46.4 °F 100% 29.82 in 3.0 mi Calm Calm - N/A   Mostly Cloudy
5:53 AM 48.9 °F - 46.9 °F 93% 29.81 in 10.0 mi Calm Calm - N/A   Partly Cloudy
6:14 AM 46.4 °F - 44.6 °F 93% 29.82 in 3.0 mi Calm Calm - N/A   Scattered Clouds
6:53 AM 48.0 °F - 46.9 °F 96% 29.82 in 7.0 mi Calm Calm - N/A   Clear
7:09 AM 48.2 °F - 46.4 °F 93% 29.82 in 1.8 mi Calm Calm - N/A   Scattered Clouds
7:13 AM 48.2 °F - 46.4 °F 93% 29.82 in 0.8 mi Calm Calm - N/A   Mostly Cloudy
7:30 AM 48.2 °F - 46.4 °F 93% 29.82 in 2.0 mi Calm Calm - 0.00 in Rain Light Rain
7:38 AM 48.2 °F - 46.4 °F 93% 29.82 in 5.0 mi Calm Calm - 0.01 in Rain Light Rain
7:53 AM 48.0 °F - 46.9 °F 96% 29.82 in 3.0 mi Calm Calm - 0.02 in Rain Light Rain
8:53 AM 48.9 °F - 46.9 °F 93% 29.84 in 5.0 mi Calm Calm - 0.02 in Rain Light Rain
9:53 AM 50.0 °F - 48.0 °F 93% 29.85 in 8.0 mi Calm Calm - 0.04 in Rain Light Rain
10:17 AM 51.8 °F - 48.2 °F 88% 29.85 in 10.0 mi Calm Calm - 0.00 in Rain Light Rain
10:53 AM 52.0 °F - 50.0 °F 93% 29.86 in 10.0 mi North 3.5 mph - 0.00 in Rain Light Rain
11:53 AM 53.1 °F - 50.0 °F 89% 29.88 in 10.0 mi NW 3.5 mph - 0.00 in Rain Light Rain
12:02 PM 53.6 °F - 50.0 °F 88% 29.88 in 10.0 mi NNW 3.5 mph - 0.00 in Rain Light Rain
12:53 PM 53.1 °F - 50.0 °F 89% 29.90 in 10.0 mi North 3.5 mph - 0.01 in Rain Light Rain
1:53 PM 55.9 °F - 50.0 °F 80% 29.91 in 10.0 mi NNW 4.6 mph - 0.00 in   Overcast
2:53 PM 59.0 °F - 50.0 °F 72% 29.91 in 10.0 mi NW 8.1 mph - N/A   Scattered Clouds
3:53 PM 57.9 °F - 48.9 °F 72% 29.93 in 10.0 mi Calm Calm - N/A   Mostly Cloudy
4:53 PM 57.0 °F - 50.0 °F 77% 29.95 in 10.0 mi NNW 3.5 mph - 0.01 in Rain Light Rain
5:53 PM 55.9 °F - 50.0 °F 80% 29.95 in 10.0 mi Calm Calm - 0.00 in   Overcast
6:53 PM 55.9 °F - 51.1 °F 84% 29.98 in 10.0 mi Calm Calm - N/A   Overcast
7:53 PM 53.1 °F - 48.9 °F 86% 30.00 in 10.0 mi Calm Calm - N/A   Clear
8:53 PM 50.0 °F - 46.9 °F 89% 30.01 in 10.0 mi Calm Calm - N/A   Clear
9:53 PM 50.0 °F - 46.9 °F 89% 30.03 in 10.0 mi Calm Calm - N/A   Clear
10:53 PM 48.0 °F - 45.0 °F 89% 30.06 in 10.0 mi ESE 3.5 mph - N/A   Clear
11:27 PM 48.2 °F - 46.4 °F 93% 30.06 in 10.0 mi Calm Calm - N/A   Mostly Cloudy
11:53 PM 48.0 °F - 45.0 °F 89% 30.07 in 10.0 mi Calm Calm - N/A   Mostly Cloudy